Find OneWeb SL0348

NORAD ID: 49213 Int'l Des: 2021-083 Owner: ONEWEBN Country: UK Constellation: oneweb operational
LEOCIRCULARPOLARONEWEB_TYPE

現在のビュー

3D地球を読み込み中...

About OneWeb SL0348

OneWeb SL0348 (NORAD 49213) is a oneweb constellation satellite launched Sep 14, 2021 by ONEWEBN of UK. It operates in LEO, CIRCULAR, POLAR, ONEWEB_TYPE orbit with a mass of 148.00 kg.

OneWeb SL0348について

説明を読み込み中...

次回通過

Passes for default location (London). Set your location on the main map for personalized predictions.

高度履歴

Loading altitude history...

軌道要素

1 49213U 21083AD 26171.29528829 .00000080 00000-0 16475-3 0 9999
2 49213 87.9198 273.8210 0002475 94.4112 265.7305 13.20771257237224
Epoch: Jun 20, 2026 • Age: 42 hours

現在のステータス

高度 1183.5 km
速度 7.26 km/s
衛星直下点 14.82°N, 10.9°W
打ち上げ日 Sep 14, 2021
運用期間 4.7 years
タイプ internet

技術仕様

分類 Payload
質量 148.00 kg
乾燥質量 140.00 kg
総質量 148.00 kg
長さ 1.30 m
直径 1.00 m
スパン 5.00 m
形状 Trapezoid+2 pan
製造者 ONEWUS
バスタイプ ARROW
フェーズステータス In Orbit
所有者/国 ONEWEBN/UK

Most Searched